Location: Casilda
(33.0440°S, 61.1680°W)
Time: 22:34:16
(UTC-03:00)

ISS - Pass Details

Date: 15 June 2018
Orbit: 402 x 406 km, 51.6° (Epoch: 18 June)

Event Time Altitude Azimuth Distance (km) Brightness Sun altitude
Exits shadow 06:21:10 22° 157° (SSE) 956 -1.9 -21.3°
Maximum altitude 06:21:37 23° 144° (SE) 936 -1.8 -21.2°
Drops below altitude 10° 06:24:20 10° 89° (E) 1,478 0.1 -20.6°
Sets 06:26:42 0° 74° (ENE) 2,333 1.7 -20.1°
